Data for 09/17/2016

Time Sea-Level Adjusted Pressure Absolute Pressure Temperature Relative Humidity Dew Point   
(mb) (inHg) (mb) (inHg) (C) (F) (%) (C) (F)
00:05 1020 30.12 849 25.07 11 51.8 49 0.8 33.4
00:10 1020 30.12 849 25.07 10.8 51.5 49 0.6 33
00:15 1020 30.12 849 25.07 10.7 51.3 50 0.8 33.4
00:20 1020 30.12 849 25.07 10.9 51.5 47 0.1 32.1
00:25 1020 30.12 849 25.07 10.8 51.5 49 0.5 33
00:30 1020 30.12 849 25.07 10.3 50.6 51 0.5 33
00:35 1020 30.12 849 25.07 10.1 50.2 50 0.2 32.3
00:40 1020 30.12 849 25.07 10 50 50 0.2 32.3
00:45 1020 30.12 849 25.07 9.8 49.7 51 0.2 32.4
00:50 1020 30.12 849 25.07 9.9 49.8 50 0.1 32.1
00:55 1020 30.12 849 25.07 10.1 50.1 50 0 32.1
01:00 1020 30.12 849 25.07 10.2 50.3 48 -0.3 31.5
01:05 1020 30.12 849 25.07 10.2 50.4 48 -0.2 31.6
01:10 1020 30.12 849 25.07 10.3 50.6 48 -0.3 31.5
01:15 1020 30.12 849 25.07 10.3 50.5 49 0.2 32.3
01:20 1020 30.12 849 25.07 9.8 49.6 50 -0.1 31.8
01:25 1020 30.12 849 25.07 9.6 49.3 51 0.1 32.2
01:30 1020 30.12 849 25.07 9.4 49 50 -0.5 31.2
01:35 1020 30.12 849 25.07 9.7 49.4 50 -0.1 31.8
01:40 1020 30.12 849 25.07 9.2 48.6 54 0.5 32.8
01:45 1020 30.12 849 25.07 8.8 47.8 53 -0.2 31.7
01:50 1020 30.12 849 25.07 9.1 48.3 51 -0.6 30.9
01:55 1020 30.12 849 25.07 9.4 48.9 49 -0.7 30.8
02:00 1020 30.12 849 25.07 9.9 49.7 49 -0.2 31.6
02:05 1020 30.12 849 25.07 10 50 47 -0.8 30.6
02:10 1020 30.12 849 25.07 10.1 50.3 48 -0.4 31.3
02:15 1020 30.12 849 25.07 9.8 49.6 49 -0.3 31.5
02:20 1020 30.12 849 25.07 9.7 49.4 49 -0.5 31.1
02:25 1020 30.12 849 25.07 9.7 49.5 46 -1.1 29.9
02:30 1020 30.12 849 25.07 10.3 50.5 46 -0.9 30.4
02:35 1020 30.12 849 25.07 10.2 50.3 46 -1 30.2
02:40 1020 30.12 849 25.07 10.3 50.5 46 -0.9 30.4
02:45 1020 30.12 849 25.07 10.2 50.4 46 -0.8 30.5
02:50 1020 30.12 849 25.07 10 50 47 -0.6 30.8
02:55 1020 30.12 849 25.07 9.9 49.9 49 -0.3 31.5
03:00 1020 30.12 849 25.07 9.6 49.3 50 -0.2 31.7
03:05 1020 30.12 849 25.07 9.3 48.8 52 -0 32
03:10 1020 30.12 849 25.07 8.9 48 56 0.5 32.9
03:15 1020 30.12 849 25.07 8.6 47.5 55 0.2 32.4
03:20 1020 30.12 849 25.07 8.7 47.6 54 -0.2 31.7
03:25 1020 30.12 849 25.07 8.9 48 53 -0.1 31.8
03:30 1020 30.12 849 25.07 9 48.1 50 -0.9 30.4
03:35 1020 30.12 849 25.07 9 48.2 53 0.1 32.1
03:40 1020 30.12 849 25.07 8.7 47.6 53 -0.3 31.5
03:45 1019 30.09 849 25.07 8.6 47.5 52 -0.7 30.8
03:50 1019 30.09 849 25.07 8.7 47.7 54 -0.1 31.9
03:55 1019 30.09 849 25.07 8.5 47.3 55 -0 31.9
04:00 1019 30.09 849 25.07 8 46.5 58 0.4 32.7
04:05 1019 30.09 849 25.07 7.6 45.7 57 -0.4 31.3
04:10 1019 30.09 848 25.04 7.9 46.3 54 -0.7 30.7
04:15 1019 30.09 848 25.04 8.5 47.2 54 -0.3 31.4
04:20 1019 30.09 848 25.04 8.4 47.2 53 -0.6 30.8
04:25 1019 30.09 848 25.04 8.5 47.4 52 -0.6 30.9
04:30 1019 30.09 848 25.04 7.7 45.8 54 -1 30.2
04:35 1019 30.09 848 25.04 8.4 47.2 49 -1.6 29.1
04:40 1019 30.09 848 25.04 9.2 48.5 49 -1.1 30
04:45 1019 30.09 848 25.04 9.3 48.8 48 -1 30.1
04:50 1019 30.09 848 25.04 9.4 48.9 48 -1.1 29.9
04:55 1019 30.09 848 25.04 9.4 48.8 48 -0.9 30.3
05:00 1019 30.09 848 25.04 9.5 49.1 47 -1.3 29.6
05:05 1019 30.09 848 25.04 9.7 49.5 46 -1.3 29.6
05:10 1019 30.09 848 25.04 9.7 49.4 48 -0.9 30.4
05:15 1019 30.09 848 25.04 9.4 48.9 47 -1.2 29.8
05:20 1019 30.09 848 25.04 9.3 48.8 48 -1 30.3
05:25 1019 30.09 848 25.04 8.9 48.1 49 -1 30.2
05:30 1019 30.09 848 25.04 9.2 48.5 49 -1 30.2
05:35 1019 30.09 848 25.04 9.1 48.4 49 -1.2 29.9
05:40 1019 30.09 848 25.04 9.1 48.3 50 -0.7 30.7
05:45 1019 30.09 848 25.04 8.9 47.9 49 -1.2 29.9
05:50 1019 30.09 848 25.04 9.1 48.4 49 -0.9 30.4
05:55 1019 30.09 848 25.04 8.9 48 50 -1 30.2
06:00 1019 30.09 848 25.04 8.9 48 50 -1.1 30.1
06:05 1019 30.09 848 25.04 8.9 47.9 50 -0.9 30.3
06:10 1019 30.09 848 25.04 8.9 48 50 -1 30.3
06:15 1019 30.09 848 25.04 8.8 47.8 50 -1 30.2
06:20 1019 30.09 848 25.04 9 48.2 49 -1.2 29.9
06:25 1019 30.09 848 25.04 9.2 48.5 49 -0.9 30.4
06:30 1019 30.09 848 25.04 9 48.2 49 -1 30.1
06:35 1019 30.09 848 25.04 9.1 48.4 49 -1.1 29.9
06:40 1019 30.09 848 25.04 9.4 48.8 47 -1.2 29.8
06:45 1019 30.09 848 25.04 9.5 49.1 48 -1 30.1
06:50 1019 30.09 848 25.04 9.3 48.8 49 -0.8 30.6
06:55 1019 30.09 848 25.04 9 48.2 50 -0.8 30.5
07:00 1019 30.09 848 25.04 8.7 47.6 51 -0.9 30.5
07:05 1019 30.09 848 25.04 8.6 47.4 52 -0.8 30.5
07:10 1019 30.09 848 25.04 8.5 47.3 51 -1 30.2
07:15 1019 30.09 848 25.04 9 48.1 50 -0.9 30.4
07:20 1019 30.09 848 25.04 9.2 48.6 47 -1.5 29.3
07:25 1019 30.09 848 25.04 9.7 49.4 48 -0.8 30.6
07:30 1019 30.09 848 25.04 9.8 49.6 45 -1.4 29.4
07:35 1019 30.09 848 25.04 10.3 50.6 44 -1.3 29.6
07:40 1019 30.09 848 25.04 10.5 50.8 45 -0.9 30.4
07:45 1019 30.09 848 25.04 10.2 50.4 46 -0.9 30.4
07:50 1019 30.09 848 25.04 10.4 50.7 45 -0.9 30.4
07:55 1019 30.09 848 25.04 10.8 51.4 43 -1.4 29.6
08:00 1019 30.09 848 25.04 11.4 52.5 41 -1.4 29.5
08:05 1019 30.09 848 25.04 11.8 53.2 40 -1.2 29.8
08:10 1019 30.09 848 25.04 11.7 53.1 42 -0.7 30.7
08:15 1019 30.09 848 25.04 11.5 52.6 41 -1.3 29.7
08:20 1019 30.09 848 25.04 11.9 53.3 41 -1 30.2
08:25 1019 30.09 848 25.04 12.2 53.9 41 -0.6 30.9
08:30 1019 30.09 848 25.04 12.4 54.3 42 -0.1 31.9
08:35 1019 30.09 848 25.04 12.1 53.7 44 0.2 32.4
08:40 1019 30.09 848 25.04 12.3 54.1 40 -0.9 30.5
08:45 1019 30.09 848 25.04 12.5 54.4 44 0.7 33.3
08:50 1019 30.09 848 25.04 12.5 54.5 44 0.7 33.3
08:55 1019 30.09 848 25.04 12.8 55 44 0.8 33.4
09:00 1019 30.09 848 25.04 13.2 55.7 43 1.1 34
09:05 1019 30.09 848 25.04 13.9 57.1 41 0.9 33.7
09:10 1019 30.09 848 25.04 14.5 58.2 45 2.8 37.1
09:15 1019 30.09 848 25.04 14.6 58.3 44 2.5 36.5
09:20 1019 30.09 848 25.04 14.3 57.8 44 2.3 36.2
09:25 1019 30.09 848 25.04 15 59 40 1.7 35
09:30 1019 30.09 848 25.04 15.5 60 38 1.5 34.8
09:35 1019 30.09 848 25.04 16 60.7 38 1.9 35.4
09:40 1019 30.09 848 25.04 15.8 60.4 39 2 35.6
09:45 1019 30.09 848 25.04 15.3 59.5 39 1.6 35
09:50 1019 30.09 848 25.04 15.2 59.3 39 1.4 34.6
09:55 1019 30.09 848 25.04 15.9 60.5 37 1.2 34.1
10:00 1019 30.09 848 25.04 16.4 61.4 39 2.4 36.3
10:05 1019 30.09 848 25.04 16.2 61.2 37 1.5 34.7
10:10 1019 30.09 848 25.04 17.1 62.9 35 1.5 34.7
10:15 1019 30.09 848 25.04 17 62.6 35 1.6 34.9
10:20 1019 30.09 848 25.04 17.1 62.8 35 1.7 35.1
10:25 1018 30.06 848 25.04 17.3 63.1 32 0.6 33.1
10:30 1018 30.06 848 25.04 17.9 64.3 31 0.8 33.5
10:35 1018 30.06 848 25.04 18.7 65.6 31 1.5 34.7
10:40 1018 30.06 847 25.01 19.1 66.4 29 0.8 33.5
10:45 1018 30.06 847 25.01 18.5 65.4 28 0 32
10:50 1018 30.06 847 25.01 18.3 64.9 29 -0.1 31.8
10:55 1018 30.06 847 25.01 18.3 64.9 29 0.2 32.3
11:00 1018 30.06 847 25.01 18.6 65.5 27 -0.6 31
11:05 1018 30.06 847 25.01 19.7 67.4 21 -3.1 26.4
11:10 1018 30.06 847 25.01 20.4 68.7 20 -3.5 25.8
11:15 1018 30.06 847 25.01 20.3 68.6 19 -3.6 25.5
11:20 1018 30.06 847 25.01 20.6 69 18 -4.2 24.4
11:25 1018 30.06 847 25.01 20.6 69 19 -3.4 25.8
11:30 1018 30.06 847 25.01 20.8 69.5 21 -2.1 28.3
11:35 1018 30.06 847 25.01 21.2 70.2 19 -2.9 26.8
11:40 1018 30.06 847 25.01 21.1 69.9 19 -3.3 26.1
11:45 1018 30.06 847 25.01 21.2 70.2 19 -3 26.5
11:50 1018 30.06 847 25.01 21.5 70.6 18 -3.3 26
11:55 1018 30.06 847 25.01 21.3 70.3 20 -2.6 27.4
12:00 1018 30.06 847 25.01 21.2 70.2 21 -2 28.3
12:05 1018 30.06 847 25.01 21 69.7 23 -1 30.2
12:10 1018 30.06 847 25.01 21 69.8 21 -2 28.5
12:15 1018 30.06 847 25.01 21 69.8 22 -1.5 29.2
12:20 1018 30.06 847 25.01 21.1 70 21 -1.8 28.7
12:25 1017 30.03 847 25.01 21.1 70 20 -2.6 27.3
12:30 1017 30.03 847 25.01 21.1 70 19 -2.9 26.8
12:35 1017 30.03 846 24.98 21.3 70.3 20 -2.3 27.8
12:40 1017 30.03 846 24.98 21.5 70.8 19 -2.9 26.8
12:45 1017 30.03 846 24.98 21.4 70.6 19 -3 26.6
12:50 1017 30.03 846 24.98 21.5 70.7 18 -4 24.8
12:55 1017 30.03 846 24.98 21.1 70 18 -4 24.9
13:00 1017 30.03 847 25.01 21 69.7 19 -3.7 25.3
13:05 1017 30.03 847 25.01 20.9 69.6 19 -3.1 26.4
13:10 1017 30.03 846 24.98 20.8 69.5 19 -3.7 25.3
13:15 1017 30.03 846 24.98 21 69.8 19 -3.3 26
13:20 1017 30.03 846 24.98 21.2 70.2 19 -3.3 26.1
13:25 1017 30.03 846 24.98 21.5 70.6 19 -3.2 26.2
13:30 1017 30.03 846 24.98 21.8 71.2 16 -5.3 22.5
13:35 1017 30.03 846 24.98 22.3 72.1 17 -3.7 25.3
13:40 1017 30.03 846 24.98 22.2 72 19 -2.4 27.7
13:45 1017 30.03 846 24.98 21.6 70.9 19 -3.2 26.3
13:50 1017 30.03 846 24.98 21.2 70.2 19 -3.2 26.3
13:55 1017 30.03 846 24.98 21 69.7 19 -3.5 25.6
14:00 1017 30.03 846 24.98 20.9 69.7 20 -2.6 27.4
14:05 1017 30.03 846 24.98 20.8 69.4 21 -2.2 28
14:10 1017 30.03 846 24.98 20.7 69.3 20 -2.6 27.4
14:15 1017 30.03 846 24.98 20.7 69.3 21 -2.5 27.6
14:20 1017 30.03 846 24.98 20.8 69.5 19 -3.7 25.3
14:25 1017 30.03 846 24.98 20.9 69.6 19 -3.3 26.1
14:30 1017 30.03 846 24.98 21.4 70.5 19 -2.8 26.9
14:35 1016 30 846 24.98 21.6 71 19 -2.9 26.7
14:40 1016 30 846 24.98 22.2 71.9 18 -2.7 27.1
14:45 1016 30 846 24.98 22.3 72.2 18 -2.6 27.3
14:50 1016 30 846 24.98 22.4 72.4 18 -2.5 27.5
14:55 1016 30 846 24.98 22.1 71.7 19 -2.1 28.2
15:00 1016 30 845 24.95 21.6 70.8 18 -3.3 26.1
15:05 1016 30 845 24.95 21.4 70.6 20 -2.6 27.3
15:10 1016 30 845 24.95 21.5 70.6 20 -2.1 28.2
15:15 1016 30 845 24.95 21.5 70.7 20 -2.1 28.2
15:20 1016 30 845 24.95 21.3 70.4 21 -1.4 29.4
15:25 1016 30 845 24.95 21.2 70.1 21 -1.8 28.7
15:30 1016 30 845 24.95 21.2 70.1 21 -2.1 28.3
15:35 1016 30 845 24.95 21.1 70 21 -2.2 28.1
15:40 1016 30 845 24.95 21 69.8 22 -1.5 29.4
15:45 1016 30 845 24.95 21 69.9 21 -1.8 28.7
15:50 1016 30 845 24.95 21.5 70.6 20 -2.5 27.5
15:55 1016 30 845 24.95 22.2 71.9 19 -2.7 27.2
16:00 1016 30 845 24.95 22.3 72.2 19 -2.5 27.5
16:05 1016 30 845 24.95 22.1 71.8 19 -2.4 27.7
16:10 1016 30 845 24.95 21.8 71.2 19 -2.5 27.6
16:15 1016 30 845 24.95 21.7 71 20 -2.2 28
16:20 1016 30 845 24.95 21.6 70.8 21 -1.7 28.9
16:25 1016 30 845 24.95 21.5 70.7 21 -1.7 28.9
16:30 1016 30 845 24.95 21.5 70.6 22 -1 30.2
16:35 1016 30 845 24.95 21.4 70.6 22 -0.9 30.3
16:40 1015 29.97 845 24.95 21.4 70.6 20 -2.1 28.2
16:45 1016 30 845 24.95 21.4 70.5 21 -1.8 28.8
16:50 1016 30 845 24.95 21.2 70.1 22 -1.5 29.4
16:55 1016 30 845 24.95 21 69.8 22 -1.2 29.9
17:00 1016 30 845 24.95 20.8 69.4 24 -0.6 30.9
17:05 1016 30 845 24.95 20.6 69 23 -0.9 30.3
17:10 1016 30 845 24.95 20.6 69 24 -0.6 31
17:15 1016 30 845 24.95 20.5 69 24 -0.8 30.5
17:20 1016 30 845 24.95 20.5 68.9 23 -0.9 30.4
17:25 1016 30 845 24.95 20.5 68.8 24 -0.6 30.9
17:30 1016 30 845 24.95 20.5 68.8 24 -0.5 31.1
17:35 1016 30 845 24.95 20.3 68.6 25 -0.2 31.6
17:40 1016 30 845 24.95 20.2 68.4 25 -0.5 31.2
17:45 1016 30 845 24.95 20.3 68.5 23 -1.2 29.8
17:50 1016 30 845 24.95 20.4 68.8 23 -1.4 29.5
17:55 1016 30 845 24.95 20.5 68.8 23 -1.1 30.1
18:00 1016 30 845 24.95 20.3 68.5 24 -0.8 30.5
18:05 1016 30 845 24.95 20.2 68.4 24 -1 30.1
18:10 1015 29.97 845 24.95 20.3 68.5 24 -1 30.3
18:15 1015 29.97 845 24.95 20.1 68.2 24 -0.7 30.8
18:20 1015 29.97 845 24.95 20.1 68.2 24 -1.1 30.1
18:25 1015 29.97 845 24.95 20.1 68.2 24 -0.9 30.4
18:30 1015 29.97 845 24.95 20.1 68.2 25 -0.4 31.2
18:35 1015 29.97 844 24.92 20.1 68.1 24 -0.7 30.7
18:40 1015 29.97 844 24.92 20.1 68.1 24 -1 30.2
18:45 1015 29.97 844 24.92 20.2 68.3 23 -1.6 29.2
18:50 1015 29.97 844 24.92 20.2 68.3 23 -1.4 29.5
18:55 1015 29.97 844 24.92 20.2 68.3 22 -2.3 27.9
19:00 1015 29.97 844 24.92 20.4 68.6 22 -1.7 29
19:05 1015 29.97 844 24.92 20.2 68.3 23 -1.3 29.7
19:10 1015 29.97 844 24.92 19.9 67.9 24 -1.3 29.7
19:15 1015 29.97 844 24.92 19.8 67.7 23 -2.1 28.3
19:20 1015 29.97 844 24.92 20 68 22 -2 28.5
19:25 1015 29.97 844 24.92 20 67.9 23 -1.7 28.9
19:30 1015 29.97 844 24.92 19.9 67.8 23 -1.8 28.7
19:35 1015 29.97 844 24.92 20 67.9 23 -1.8 28.7
19:40 1015 29.97 844 24.92 19.8 67.7 23 -1.6 29.2
19:45 1015 29.97 844 24.92 20 67.9 21 -2.6 27.3
19:50 1015 29.97 844 24.92 20.3 68.5 22 -2.1 28.2
19:55 1015 29.97 844 24.92 20.3 68.6 22 -2.2 28.1
20:00 1015 29.97 844 24.92 20.4 68.7 22 -2 28.4
20:05 1015 29.97 844 24.92 20.3 68.5 23 -1.6 29
20:10 1015 29.97 845 24.95 20.1 68.2 23 -1.4 29.5
20:15 1015 29.97 845 24.95 19.9 67.8 24 -1.3 29.6
20:20 1015 29.97 845 24.95 19.7 67.4 25 -0.8 30.5
20:25 1015 29.97 845 24.95 19.4 66.9 26 -0.6 30.8
20:30 1015 29.97 844 24.92 19.3 66.7 25 -0.8 30.5
20:35 1015 29.97 845 24.95 19.3 66.7 25 -1.1 30
20:40 1015 29.97 844 24.92 19.4 67 25 -1.2 29.9
20:45 1015 29.97 844 24.92 19.5 67.1 24 -1.2 29.8
20:50 1015 29.97 844 24.92 19.7 67.5 25 -1 30.3
20:55 1015 29.97 844 24.92 19.6 67.3 25 -0.8 30.5
21:00 1015 29.97 844 24.92 19.5 67 26 -0.5 31
21:05 1015 29.97 844 24.92 19.3 66.8 26 -0.7 30.8
21:10 1015 29.97 844 24.92 19.4 67 25 -1.1 30
21:15 1015 29.97 844 24.92 19.6 67.3 25 -0.7 30.7
21:20 1015 29.97 844 24.92 19.5 67.1 26 -0.6 30.9
21:25 1015 29.97 844 24.92 19.4 66.8 26 -0.7 30.8
21:30 1015 29.97 844 24.92 19.4 66.9 25 -0.7 30.7
21:35 1015 29.97 844 24.92 19.4 67 25 -0.7 30.8
21:40 1015 29.97 844 24.92 19.4 66.9 26 -0.5 31
21:45 1015 29.97 844 24.92 19.2 66.5 27 -0.3 31.5
21:50 1015 29.97 844 24.92 19.1 66.4 27 -0.1 31.9
21:55 1015 29.97 844 24.92 19 66.2 28 0.2 32.4
22:00 1015 29.97 844 24.92 19.1 66.4 27 -0 32
22:05 1015 29.97 844 24.92 19.1 66.3 28 0.4 32.7
22:10 1015 29.97 844 24.92 18.9 66 28 0.3 32.6
22:15 1015 29.97 844 24.92 18.9 66 28 0.1 32.2
22:20 1015 29.97 844 24.92 19.1 66.3 28 0.1 32.2
22:25 1015 29.97 844 24.92 19.1 66.4 28 0.3 32.5
22:30 1015 29.97 844 24.92 19 66.2 28 0.5 32.8
22:35 1015 29.97 844 24.92 18.9 66 29 0.5 33
22:40 1015 29.97 844 24.92 18.8 65.8 30 0.8 33.5
22:45 1015 29.97 844 24.92 18.6 65.5 30 0.7 33.2
22:50 1015 29.97 844 24.92 18.6 65.5 30 0.8 33.5
22:55 1015 29.97 844 24.92 18.7 65.6 30 0.8 33.4
23:00 1015 29.97 844 24.92 18.8 65.8 29 0.3 32.5
23:05 1015 29.97 844 24.92 19 66.2 29 0.6 33
23:10 1015 29.97 844 24.92 19 66.1 29 0.7 33.3
23:15 1015 29.97 844 24.92 18.9 65.9 29 0.8 33.4
23:20 1015 29.97 844 24.92 18.8 65.8 30 1 33.8
23:25 1015 29.97 844 24.92 18.7 65.7 30 1.1 34
23:30 1015 29.97 844 24.92 18.7 65.7 30 0.9 33.5
23:35 1015 29.97 844 24.92 18.8 65.8 30 1 33.9
23:40 1015 29.97 844 24.92 18.8 65.8 30 1 33.8
23:45 1015 29.97 844 24.92 19 66.1 30 1.2 34.2
23:50 1015 29.97 844 24.92 18.9 66 31 1.7 35
23:55 1015 29.97 844 24.92 18.8 65.8 32 1.7 35
24:00 1015 29.97 844 24.92 18.7 65.7 32 1.9 35.4